Current weather by "City, St" or "zip code"  
 

Current Conditions: Lovelock, Derby Field Airport, NV

Fair


21.0 F

Last Updated on Feb 25 2024, 4:53 am PST
Humidity: 88%
Wind Speed: SE 3.5 mph
Barometer 30.07 in
Dewpoint: 18.0 F
Visibility: 10.00 mi
Precip: --
Heat Index: NA
Wind Chill: NA
Current conditions at:

Lovelock, Derby Field Airport, NV (KLOL)

Lat: 40.0684 Lon: 118.57017

Local Radar Image active severe weather and emergency alerts image image weather storm and storm spotter reports image weather observation monitoring service image
Local
Radar
Active
Alerts
Storm Reports Obs
Monitoring

Sign-up For Email & Text Message Weather Alert Notification Services



Advertise Here

Observation History for Lovelock, Derby Field Airport, NV


Time Wind
(mph)
Vis
(mi)
Weather Precip (in) Temperature (F) Relative
Humidity
Wind
Chill
(F)
Heat
Index
(F)
Pressure
Air Dwpt altimeter
(in)
sea level
(mb)
Rmks
4:53 am PST SE 3.5 10.00 Fair -- 21.0 18.0 88% NA NA 30.07 1019.2
1:53 am PST N 0.0 10.00 Fair -- 27.0 24.1 89% NA NA 30.08 1019.1
12:53 am PST SE 5.8 10.00 Fair -- 24.0 21.0 88% 17 NA 30.08 1019.6
10:53 pm PST E 3.5 10.00 Fair -- 31.0 25.0 79% NA NA 30.09 1019.6
8:53 pm PST E 4.6 10.00 Fair -- 36.0 28.0 73% 32 NA 30.08 1019.8
6:53 pm PST NW 4.6 10.00 Fair -- 41.0 28.9 62% 38 NA 30.07 1020.4
5:53 pm PST SE 3.5 10.00 Fair -- 50.0 27.0 41% NA NA 30.07 1019.3
3:53 pm PST N 0.0 10.00 Fair -- 57.0 27.0 32% NA NA 30.07 1018.9
12:53 pm PST SW 4.6 10.00 Fair -- 54.0 28.9 38% 53 NA 30.12 1020.6
10:53 am PST N 0.0 10.00 Fair -- 49.0 30.9 50% NA NA 30.17 1022.5
9:53 am PST NE 5.8 10.00 Fair -- 44.0 32.0 63% 41 NA 30.19 1023.2
8:53 am PST 4.6 10.00 Fair -- 37.0 30.9 79% 33 NA 30.20 1024.3
7:53 am PST N 0.0 10.00 Fair -- 31.0 28.0 89% NA NA 30.20 1024.4

Regional Weather Observation


Fallon, Naval Air Station, NV (KNFL)

Fair
32.0 F

Winnemucca, Winnemucca Municipal Airport, NV (KWMC)

Fair
28.0 F

Reno/Stead, NV (KRTS)

Fair
27.0 F

Reno, Reno Tahoe International Airport, NV (KRNO)

Fair
31.0 F

Carson City Airport, NV (KCXP)

Fair
28.0 F

Susanville Municipal Airport, CA (KSVE)

Fair
48.0 F

Advertise Here


Advertise Here